Weather History for KRDU - June, 2014

Change the Weather History Date:

Thursday, June 26, 2014

  Actual Average Record
Temperature  
Mean Temperature 81 °F 79 °F  
Max Temperature 93 °F 89 °F 102 °F (1952)
Min Temperature 69 °F 68 °F 52 °F (1979)
Degree Days  
Heating Degree Days 0 0  
Month to date heating degree days 0 0  
Since 1 June heating degree days 0 0  
Since 1 July heating degree days 3478 3243  
Cooling Degree Days 16 14  
Month to date cooling degree days 331 291  
Year to date cooling degree days 544 500  
Since 1 June cooling degree days 331 291  
Growing Degree Days 31 (Base 50)    
Moisture  
Dew Point 66 °F    
Average Humidity 63    
Maximum Humidity 84    
Minimum Humidity 41    
Precipitation  
Precipitation T in 0.11 in 1.85 in (1892)
Month to date precipitation 2.43 3.04  
Year to date precipitation 21.70 20.07  
Sea Level Pressure  
Sea Level Pressure 29.95 in    
Wind  
Wind Speed 4 mph (NNE)    
Max Wind Speed 12 mph    
Max Gust Speed 17 mph    
Visibility 10 miles    
Events      
T = Trace of Precipitation, MM = Missing Value Source: NWS Daily Summary

Daily Weather History Graph

Daily Weather History Graph

Search for Another Location

Airport or City:

Trip Planner

Search our weather history database for the weather conditions in past years. The results will help you decide how hot, cold, wet, or windy it might be!

Date:

Astronomy

Jun. 26, 2014 Rise Set
Actual Time 6:00 AM EDT 8:35 PM EDT
Civil Twilight 5:30 AM EDT 9:05 PM EDT
Nautical Twilight 4:52 AM EDT 9:43 PM EDT
Astronomical Twilight 4:11 AM EDT 10:24 PM EDT
Moon 5:35 AM EDT (6/26) 7:58 PM EDT (6/26)
Length of Visible Light 15h 35m
Length of Day
14h 35m
Waning Crescent, 0% of the Moon is Illuminated
Jun 26
Waning Crescent
Jun 27
New
Jul 5
First Quarter
Jul 12
Full
Jul 18
Last Quarter

Hourly Weather History & Observations

Time (EDT) Temp. Heat Index Dew Point Humidity Pressure Visibility Wind Dir Wind Speed Gust Speed Precip Events Conditions
12:51 AM 75.0 °F - 68.0 °F 79% 29.94 in 10.0 mi Calm Calm - N/A   Scattered Clouds
1:51 AM 73.0 °F - 68.0 °F 84% 29.95 in 10.0 mi WSW 4.6 mph - N/A   Scattered Clouds
2:51 AM 73.0 °F - 66.9 °F 81% 29.95 in 10.0 mi West 3.5 mph - N/A   Scattered Clouds
3:51 AM 71.1 °F - 66.0 °F 84% 29.94 in 10.0 mi Calm Calm - N/A   Scattered Clouds
4:51 AM 71.1 °F - 66.9 °F 87% 29.94 in 10.0 mi Calm Calm - N/A   Scattered Clouds
5:51 AM 71.1 °F - 66.9 °F 87% 29.95 in 10.0 mi Calm Calm - N/A   Scattered Clouds
6:51 AM 72.0 °F - 66.9 °F 84% 29.96 in 10.0 mi Calm Calm - N/A   Mostly Cloudy
7:51 AM 75.9 °F - 66.9 °F 74% 29.97 in 10.0 mi West 5.8 mph - N/A   Mostly Cloudy
8:51 AM 80.1 °F 82.3 °F 66.9 °F 64% 29.97 in 10.0 mi Variable 3.5 mph - N/A   Mostly Cloudy
9:51 AM 84.0 °F 86.3 °F 66.0 °F 55% 29.98 in 10.0 mi NW 8.1 mph - N/A   Mostly Cloudy
10:51 AM 84.9 °F 87.1 °F 66.0 °F 53% 29.97 in 10.0 mi Variable 3.5 mph - N/A   Mostly Cloudy
11:51 AM 87.1 °F 88.9 °F 64.9 °F 48% 29.98 in 10.0 mi Variable 3.5 mph - N/A   Mostly Cloudy
12:51 PM 88.0 °F 89.6 °F 64.9 °F 46% 29.96 in 10.0 mi NW 6.9 mph - N/A   Mostly Cloudy
1:51 PM 89.6 °F 91.1 °F 64.4 °F 43% 29.96 in 10.0 mi NW 5.8 mph - N/A   Mostly Cloudy
2:51 PM 91.0 °F 93.0 °F 64.9 °F 42% 29.93 in 10.0 mi NNW 8.1 mph - N/A   Mostly Cloudy
3:51 PM 91.9 °F 93.3 °F 64.0 °F 39% 29.92 in 10.0 mi Calm Calm - N/A   Mostly Cloudy
4:51 PM 90.0 °F 92.4 °F 66.0 °F 45% 29.91 in 10.0 mi East 5.8 mph - N/A   Scattered Clouds
5:51 PM 91.0 °F 93.0 °F 64.9 °F 42% 29.90 in 10.0 mi NE 5.8 mph - N/A   Scattered Clouds
6:51 PM 89.1 °F 91.3 °F 66.0 °F 46% 29.90 in 10.0 mi ENE 4.6 mph - N/A   Scattered Clouds
7:51 PM 87.1 °F 89.9 °F 66.9 °F 51% 29.91 in 10.0 mi East 4.6 mph - N/A   Scattered Clouds
8:51 PM 79.0 °F - 69.1 °F 72% 29.93 in 10.0 mi NE 3.5 mph - N/A   Scattered Clouds
9:51 PM 81.0 °F 84.1 °F 69.1 °F 67% 29.95 in 10.0 mi East 4.6 mph - N/A   Mostly Cloudy
10:51 PM 82.0 °F 84.5 °F 66.9 °F 60% 29.96 in 10.0 mi ESE 5.8 mph - N/A   Mostly Cloudy
11:51 PM 81.0 °F 83.3 °F 66.9 °F 62% 29.97 in 10.0 mi East 4.6 mph - N/A   Mostly Cloudy